VOI371 MMAA-MMMX

Flight info

Callsign VOI371
Flight time 0h 35m
Altitude 34000
Route ALNUS1B ALNUS UT117 ESPOS ESPOS4B
Aircraft A321/M-SDE3FGHIRWY/LB1

Departure

Time 2026-04-25 18:20
Airport General Juan N. Álvarez International Airport (MMAA)

Arrival

Time 2026-04-25 18:56
Airport Mexico City Benito Juárez International Airport (MMMX)
Time Latitude Longitude Altitude Speed Heading
2026-04-25 17:47 16.76139 -99.75560 23 ft 0 kts 24°
2026-04-25 18:11 16.76120 -99.75567 23 ft 4 kts 13°
2026-04-25 18:11 16.76093 -99.75574 23 ft 4 kts 17°
2026-04-25 18:11 16.76069 -99.75584 24 ft 4 kts 36°
2026-04-25 18:12 16.76052 -99.75603 24 ft 4 kts 79°
2026-04-25 18:12 16.76052 -99.75619 23 ft 0 kts 107°
2026-04-25 18:14 16.76051 -99.75616 23 ft 1 kts 107°
2026-04-25 18:14 16.76046 -99.75599 24 ft 4 kts 107°
2026-04-25 18:14 16.76026 -99.75558 23 ft 10 kts 124°
2026-04-25 18:14 16.75997 -99.75486 23 ft 12 kts 94°
2026-04-25 18:15 16.75965 -99.75409 23 ft 12 kts 151°
2026-04-25 18:15 16.75900 -99.75348 23 ft 14 kts 122°
2026-04-25 18:15 16.75868 -99.75249 22 ft 15 kts 103°
2026-04-25 18:15 16.75834 -99.75139 23 ft 17 kts 111°
2026-04-25 18:16 16.75794 -99.75020 23 ft 18 kts 108°
2026-04-25 18:16 16.75753 -99.74891 22 ft 19 kts 108°
2026-04-25 18:16 16.75666 -99.74611 22 ft 21 kts 108°
2026-04-25 18:17 16.75619 -99.74460 22 ft 22 kts 108°
2026-04-25 18:17 16.75570 -99.74304 25 ft 23 kts 108°
2026-04-25 18:17 16.75521 -99.74144 23 ft 24 kts 108°
2026-04-25 18:17 16.75470 -99.73979 25 ft 24 kts 108°
2026-04-25 18:18 16.75425 -99.73825 23 ft 18 kts 104°
2026-04-25 18:18 16.75382 -99.73698 23 ft 19 kts 107°
2026-04-25 18:18 16.75340 -99.73562 24 ft 20 kts 108°
2026-04-25 18:18 16.75296 -99.73419 24 ft 20 kts 107°
2026-04-25 18:19 16.75218 -99.73335 23 ft 16 kts 181°
2026-04-25 18:19 16.75161 -99.73347 23 ft 7 kts 194°
2026-04-25 18:19 16.75111 -99.73368 24 ft 8 kts 207°
2026-04-25 18:19 16.75093 -99.73412 23 ft 7 kts 274°
2026-04-25 18:20 16.75098 -99.73432 22 ft 0 kts 285°
2026-04-25 18:20 16.75180 -99.73705 21 ft 85 kts 288°
2026-04-25 18:20 16.75446 -99.74550 28 ft 160 kts 288°
2026-04-25 18:20 16.75837 -99.75736 652 ft 178 kts 288°
2026-04-25 18:21 16.76237 -99.76963 1656 ft 179 kts 286°
2026-04-25 18:21 16.76641 -99.78292 2359 ft 204 kts 286°
2026-04-25 18:21 16.77095 -99.79791 3081 ft 230 kts 287°
2026-04-25 18:21 16.77612 -99.81467 3823 ft 256 kts 288°
2026-04-25 18:22 16.78178 -99.83290 4329 ft 270 kts 288°
2026-04-25 18:22 16.78375 -99.83922 4545 ft 272 kts 288°
2026-04-25 18:22 16.79567 -99.86987 5705 ft 277 kts 309°
2026-04-25 18:22 16.81058 -99.88229 6438 ft 277 kts 336°
2026-04-25 18:23 16.82906 -99.88822 7073 ft 280 kts 345°
2026-04-25 18:23 16.84803 -99.89346 7712 ft 284 kts 346°
2026-04-25 18:23 16.86729 -99.89873 8367 ft 288 kts 345°
2026-04-25 18:23 16.88673 -99.90406 9030 ft 291 kts 345°
2026-04-25 18:24 16.90640 -99.90944 9708 ft 294 kts 345°
2026-04-25 18:24 16.92638 -99.91481 10182 ft 304 kts 349°
2026-04-25 18:24 16.94817 -99.91614 10317 ft 325 kts
2026-04-25 18:24 16.97099 -99.91144 10437 ft 345 kts 18°
2026-04-25 18:25 16.99338 -99.90119 10688 ft 358 kts 30°
2026-04-25 18:25 17.01478 -99.88748 11183 ft 363 kts 32°
2026-04-25 18:25 17.03646 -99.87379 11748 ft 366 kts 31°
2026-04-25 18:25 17.05843 -99.86009 12319 ft 369 kts 31°
2026-04-25 18:26 17.08053 -99.84635 12899 ft 372 kts 32°
2026-04-25 18:26 17.10282 -99.83246 13490 ft 375 kts 32°
2026-04-25 18:26 17.12526 -99.81841 14076 ft 376 kts 32°
2026-04-25 18:26 17.14772 -99.80430 14605 ft 378 kts 32°
2026-04-25 18:27 17.17032 -99.79006 15149 ft 380 kts 32°
2026-04-25 18:27 17.19358 -99.77676 15702 ft 382 kts 25°
2026-04-25 18:27 17.21849 -99.76814 16394 ft 373 kts 14°
2026-04-25 18:27 17.24460 -99.76433 16657 ft 385 kts
2026-04-25 18:28 17.27162 -99.76478 17050 ft 392 kts
2026-04-25 18:28 17.29901 -99.76551 17554 ft 394 kts
2026-04-25 18:28 17.32654 -99.76617 18065 ft 398 kts
2026-04-25 18:29 17.38221 -99.76730 19000 ft 403 kts
2026-04-25 18:29 17.41028 -99.76784 19479 ft 405 kts
2026-04-25 18:30 17.49551 -99.76963 20850 ft 412 kts 360°
2026-04-25 18:30 17.52425 -99.77027 21275 ft 415 kts 359°
2026-04-25 18:30 17.55326 -99.77089 21664 ft 418 kts 359°
2026-04-25 18:30 17.58239 -99.77150 22064 ft 420 kts 359°
2026-04-25 18:31 17.61176 -99.77213 22467 ft 423 kts 359°
2026-04-25 18:31 17.64125 -99.77279 22858 ft 426 kts 359°
2026-04-25 18:31 17.67100 -99.77345 23247 ft 428 kts 359°
2026-04-25 18:31 17.70082 -99.77408 23608 ft 431 kts 359°
2026-04-25 18:32 17.73087 -99.77471 23917 ft 433 kts 358°
2026-04-25 18:32 17.76109 -99.77538 24249 ft 435 kts 358°
2026-04-25 18:32 17.79145 -99.77611 24560 ft 437 kts 358°
2026-04-25 18:32 17.82180 -99.77731 24895 ft 439 kts 357°
2026-04-25 18:33 17.85248 -99.77896 25228 ft 441 kts 356°
2026-04-25 18:33 17.88325 -99.78086 25557 ft 443 kts 356°
2026-04-25 18:33 17.91408 -99.78280 25874 ft 446 kts 356°
2026-04-25 18:33 17.94508 -99.78466 26208 ft 447 kts 356°
2026-04-25 18:34 17.97626 -99.78641 26536 ft 449 kts 356°
2026-04-25 18:34 18.00718 -99.78804 26861 ft 451 kts 356°
2026-04-25 18:34 18.03898 -99.78968 27183 ft 453 kts 356°
2026-04-25 18:34 18.07056 -99.79131 27484 ft 455 kts 356°
2026-04-25 18:35 18.10225 -99.79297 27780 ft 458 kts 356°
2026-04-25 18:35 18.13414 -99.79468 28119 ft 460 kts 356°
2026-04-25 18:35 18.16616 -99.79641 28438 ft 461 kts 356°
2026-04-25 18:35 18.19828 -99.79816 28774 ft 463 kts 355°
2026-04-25 18:36 18.23058 -99.79990 29089 ft 465 kts 355°
2026-04-25 18:36 18.26288 -99.80162 29461 ft 466 kts 355°
2026-04-25 18:36 18.29528 -99.80336 29565 ft 465 kts 355°
2026-04-25 18:36 18.32760 -99.80511 29608 ft 465 kts 355°
2026-04-25 18:37 18.38125 -99.80799 29600 ft 465 kts 355°
2026-04-25 18:37 18.45672 -99.81205 29617 ft 464 kts 355°
2026-04-25 18:38 18.51034 -99.81492 29621 ft 464 kts 355°
2026-04-25 18:38 18.57493 -99.81836 29622 ft 465 kts 355°
2026-04-25 18:39 18.63959 -99.82173 29637 ft 466 kts 358°
2026-04-25 18:39 18.67194 -99.81836 29638 ft 469 kts 11°
2026-04-25 18:39 18.70283 -99.80703 29634 ft 473 kts 24°
2026-04-25 18:40 18.73057 -99.78829 29660 ft 477 kts 38°
2026-04-25 18:40 18.75370 -99.76301 29672 ft 481 kts 51°
2026-04-25 18:40 18.78716 -99.70156 29669 ft 485 kts 63°
2026-04-25 18:41 18.81424 -99.63622 28920 ft 490 kts 66°
2026-04-25 18:41 18.82721 -99.60272 27936 ft 492 kts 66°
2026-04-25 18:41 18.84008 -99.56983 27710 ft 478 kts 66°
2026-04-25 18:42 18.85313 -99.53751 26741 ft 481 kts 65°
2026-04-25 18:42 18.86202 -99.51613 26142 ft 482 kts 65°
2026-04-25 18:42 18.88034 -99.47306 25257 ft 478 kts 64°
2026-04-25 18:42 18.89393 -99.44145 24975 ft 465 kts 64°
2026-04-25 18:43 18.90704 -99.41093 24856 ft 449 kts 64°
2026-04-25 18:43 18.91963 -99.38138 24725 ft 434 kts 64°
2026-04-25 18:43 18.93176 -99.35271 24753 ft 420 kts 64°
2026-04-25 18:43 18.94336 -99.32487 24592 ft 410 kts 66°
2026-04-25 18:44 18.95080 -99.29541 23814 ft 421 kts 83°
2026-04-25 18:44 18.95040 -99.26483 23648 ft 414 kts 97°
2026-04-25 18:44 18.94377 -99.23561 23345 ft 408 kts 109°
2026-04-25 18:44 18.93106 -99.20881 22648 ft 408 kts 124°
2026-04-25 18:45 18.91445 -99.18470 21952 ft 406 kts 126°
2026-04-25 18:45 18.89821 -99.16034 21250 ft 403 kts 119°
2026-04-25 18:45 18.88617 -99.13405 20571 ft 398 kts 109°
2026-04-25 18:45 18.87895 -99.10581 19894 ft 399 kts 99°
2026-04-25 18:46 18.87442 -99.07683 19229 ft 401 kts 93°
2026-04-25 18:46 18.87668 -99.04774 18577 ft 398 kts 73°
2026-04-25 18:46 18.88814 -99.02147 17884 ft 396 kts 53°
2026-04-25 18:46 18.90699 -99.00131 17169 ft 376 kts 33°
2026-04-25 18:47 18.92973 -98.98940 16467 ft 356 kts 15°
2026-04-25 18:47 18.95352 -98.98563 15779 ft 339 kts 359°
2026-04-25 18:47 18.97632 -98.98929 15125 ft 328 kts 342°
2026-04-25 18:47 18.99758 -98.99727 14441 ft 319 kts 343°
2026-04-25 18:48 19.01870 -99.00294 13882 ft 307 kts 350°
2026-04-25 18:48 19.03937 -99.00565 13735 ft 294 kts 357°
2026-04-25 18:48 19.05942 -99.00654 13669 ft 281 kts 358°
2026-04-25 18:48 19.07844 -99.00738 13675 ft 267 kts 358°
2026-04-25 18:49 19.09689 -99.00820 13697 ft 266 kts 358°
2026-04-25 18:49 19.11542 -99.00903 13749 ft 267 kts 358°
2026-04-25 18:49 19.13391 -99.00986 13740 ft 265 kts 358°
2026-04-25 18:49 19.15238 -99.01070 13761 ft 265 kts 358°
2026-04-25 18:50 19.17045 -99.01329 13463 ft 262 kts 343°
2026-04-25 18:50 19.18676 -99.02158 13088 ft 261 kts 325°
2026-04-25 18:50 19.20038 -99.03429 12672 ft 261 kts 317°
2026-04-25 18:50 19.21337 -99.04732 12374 ft 260 kts 317°
2026-04-25 18:51 19.22661 -99.06047 12363 ft 262 kts 317°
2026-04-25 18:51 19.23562 -99.06941 12389 ft 263 kts 317°
2026-04-25 18:51 19.25462 -99.08494 12395 ft 257 kts 326°
2026-04-25 18:51 19.26932 -99.09554 12352 ft 252 kts 325°
2026-04-25 18:52 19.28371 -99.10595 11925 ft 252 kts 325°
2026-04-25 18:52 19.29823 -99.11649 11262 ft 253 kts 326°
2026-04-25 18:52 19.31278 -99.12708 10598 ft 254 kts 326°
2026-04-25 18:52 19.32730 -99.13766 9953 ft 253 kts 326°
2026-04-25 18:53 19.34270 -99.14636 9380 ft 250 kts 342°
2026-04-25 18:53 19.35902 -99.14928 9225 ft 221 kts
2026-04-25 18:53 19.37285 -99.14760 9143 ft 185 kts 15°
2026-04-25 18:53 19.38440 -99.14316 9037 ft 170 kts 27°
2026-04-25 18:54 19.40245 -99.12823 8661 ft 161 kts 51°
2026-04-25 18:54 19.40869 -99.11849 8352 ft 160 kts 60°
2026-04-25 18:54 19.41435 -99.10841 8041 ft 159 kts 58°
2026-04-25 18:55 19.42007 -99.09824 7754 ft 159 kts 58°
2026-04-25 18:55 19.42570 -99.08820 7488 ft 159 kts 57°
2026-04-25 18:55 19.43135 -99.07815 7327 ft 154 kts 56°
2026-04-25 18:55 19.43578 -99.07007 7302 ft 67 kts 59°
2026-04-25 18:56 19.43723 -99.06762 7303 ft 36 kts 61°
2026-04-25 18:56 19.43855 -99.06551 7303 ft 27 kts 40°
2026-04-25 18:56 19.43951 -99.06526 7303 ft 7 kts 320°
2026-04-25 18:56 19.43956 -99.06538 7303 ft 0 kts 292°
2026-04-25 18:57 19.43958 -99.06544 7303 ft 3 kts 289°
2026-04-25 18:57 19.43965 -99.06584 7303 ft 8 kts 276°
2026-04-25 18:57 19.43964 -99.06628 7303 ft 10 kts 267°
2026-04-25 18:58 19.43964 -99.06752 7303 ft 14 kts 281°
2026-04-25 18:58 19.44097 -99.06902 7303 ft 13 kts 271°
2026-04-25 18:58 19.44046 -99.06992 7303 ft 16 kts 238°
2026-04-25 18:59 19.43913 -99.07230 7303 ft 22 kts 239°
2026-04-25 18:59 19.43746 -99.07530 7303 ft 16 kts 239°
2026-04-25 19:00 19.43778 -99.07636 7303 ft 10 kts 299°
2026-04-25 19:00 19.43794 -99.07685 7303 ft 8 kts 265°
2026-04-25 19:01 19.43785 -99.07715 7322 ft 0 kts 247°